Wind_Speed
24 20 16 8 12 13 23 20 21 21 17 11 8 10 18 21 22 6 7 2 4 10 4 6 3 5 6 8 9 10 9 9
20 22 20 25 13 19 23 26 26 25 22 18 15 18 20 12 11 3 6 7 6 8 15 5 2 3 3 7 9 12 11 8
25 25 19 19 16 15 17 27 30 27 30 21 16 17 14 20 18 7 5 9 9 4 4 3 3 7 7 10 13 14 13 9
27 28 23 21 17 15 21 19 33 34 26 19 12 13 19 25 31 21 13 10 18 10 9 5 7 9 8 10 13 14 14 8
27 34 29 25 21 21 22 23 24 34 32 19 19 14 12 18 28 27 19 13 21 15 12 13 11 12 11 10 11 13 13 7
36 30 38 36 31 27 25 24 25 23 35 26 22 14 16 21 25 17 28 26 18 19 21 20 19 14 15 10 11 10 11 10
42 39 33 36 42 39 33 28 28 26 22 29 22 22 23 29 28 29 21 31 19 16 18 23 17 15 16 12 11 10 10 12
43 37 38 39 35 42 43 37 33 28 26 17 30 22 23 32 27 28 22 29 17 26 24 14 14 14 15 17 14 13 10 11
36 35 31 39 44 40 45 40 38 32 26 28 26 29 30 31 30 36 41 33 24 24 24 16 16 21 19 19 20 18 15 13
40 34 39 29 39 39 44 50 46 41 27 29 28 22 24 26 34 39 33 32 28 28 27 23 18 23 23 21 22 22 20 18
46 44 38 31 32 42 52 48 53 50 39 30 29 27 29 30 28 33 34 28 38 32 27 22 18 23 24 24 24 24 25 25
41 40 39 34 33 38 44 52 52 55 50 39 33 33 33 23 21 27 33 23 19 24 18 24 22 23 26 27 26 26 27 28
31 37 36 29 33 35 48 52 44 48 56 48 45 39 32 22 21 25 25 31 25 19 19 19 23 26 29 30 28 29 30 31
31 35 36 25 29 34 35 41 39 39 43 60 56 46 41 36 24 35 24 24 27 22 21 23 25 28 29 30 32 32 31 30
26 29 33 33 31 33 39 47 47 45 46 51 61 47 50 44 32 38 18 25 32 26 29 29 31 31 33 33 33 34 34 32
23 20 29 32 38 27 40 52 46 49 45 51 52 53 53 47 40 33 30 29 27 29 30 32 34 36 35 34 32 32 33 33
23 23 22 31 33 22 25 32 44 51 47 50 59 57 58 53 49 43 36 32 32 29 29 31 32 36 36 35 34 34 35 35
20 19 20 21 27 33 31 32 42 44 43 46 58 63 65 63 51 47 38 36 38 42 37 38 36 38 38 37 36 35 35 36
18 16 20 15 12 20 23 30 39 47 47 54 54 63 68 71 34 35 33 39 40 43 44 40 38 39 40 41 39 38 38 37
Wind_Direction
242 200 207 203 267 281 267 260 241 220 233 270 297 319 308 300 221 248 124 342 276 254 267 356 51 31 356 6 3 342 324 295
221 218 215 236 213 263 256 252 241 217 237 256 275 301 316 276 216 135 152 260 276 224 227 281 186 65 21 8 -0 345 332 326
221 223 224 228 223 250 269 246 249 249 238 238 250 263 299 290 304 220 213 236 301 295 200 303 352 10 12 3 358 358 341 321
227 204 218 230 221 242 268 266 249 256 252 236 232 263 288 270 288 257 203 237 278 289 324 323 349 332 339 350 2 3 2 -0
232 212 212 220 223 229 250 265 266 249 252 238 251 262 273 276 292 260 191 215 262 282 300 324 320 302 310 333 350 5 8 358
249 243 220 220 217 219 229 241 261 272 249 236 246 268 271 287 286 290 203 205 232 274 293 296 300 276 291 308 330 351 -0 1
246 247 248 235 229 225 229 235 241 257 272 235 234 242 240 270 274 274 279 200 194 260 298 282 269 268 281 293 304 311 337 347
251 252 250 244 241 231 226 231 239 249 248 244 235 232 250 267 276 270 292 255 222 242 263 262 261 269 275 287 287 296 312 324
269 263 256 251 237 232 226 229 233 232 240 236 234 243 257 267 256 271 268 211 227 242 247 256 266 267 264 275 282 287 294 299
267 269 254 252 236 230 230 228 232 233 222 232 234 223 260 264 266 264 267 223 236 237 246 273 266 255 255 260 271 278 285 288
256 258 253 237 233 234 236 233 232 230 226 225 232 237 226 257 263 266 269 240 237 230 241 259 269 252 251 255 261 268 278 283
259 262 261 257 239 247 241 238 235 232 227 225 228 231 234 253 250 263 265 267 250 234 238 252 258 249 250 253 256 263 271 276
270 271 270 276 271 256 254 236 232 232 227 225 228 232 234 228 249 247 246 257 255 249 255 251 250 246 246 252 256 263 270 274
269 271 276 265 253 255 248 229 230 238 236 223 228 232 233 232 224 237 227 241 249 256 265 257 251 256 253 254 257 261 263 266
270 284 280 264 266 250 243 236 236 239 232 226 224 233 233 226 224 234 236 244 237 244 260 252 253 257 259 258 258 261 263 265
277 289 282 280 279 268 238 235 234 240 242 230 225 230 232 229 219 228 230 239 255 254 244 250 256 261 261 261 261 264 268 273
276 293 297 285 267 251 236 230 232 240 241 234 224 225 230 225 214 201 215 232 243 240 249 247 253 260 263 265 268 271 273 276
278 314 312 295 258 253 253 261 241 240 247 230 222 224 226 225 199 178 220 237 248 250 255 257 257 257 260 263 266 266 268 271
278 283 310 329 263 290 281 262 243 240 234 232 226 225 224 226 166 164 199 233 243 252 251 255 259 260 263 265 267 269 269 269
Height
5878 5878 5881 5885 5886 5889 5886 5890 5890 5894 5895 5896 5898 5900 5899 5898 5901 5903 5900 5902 5905 5908 5908 5908 5908 5907 5904 5903 5901 5899 5897 5894
5874 5874 5876 5875 5882 5883 5882 5882 5885 5888 5888 5891 5893 5894 5896 5892 5894 5894 5895 5898 5905 5907 5907 5907 5907 5906 5904 5903 5901 5898 5895 5892
5867 5868 5872 5873 5875 5877 5877 5877 5878 5882 5884 5888 5891 5892 5894 5891 5891 5889 5891 5895 5901 5904 5905 5903 5902 5901 5901 5900 5898 5896 5892 5890
5862 5866 5866 5867 5868 5872 5873 5875 5875 5875 5878 5885 5886 5886 5887 5889 5888 5889 5888 5892 5897 5899 5901 5901 5898 5899 5899 5898 5896 5894 5889 5888
5853 5860 5862 5861 5864 5867 5868 5868 5868 5869 5871 5879 5880 5880 5880 5880 5876 5883 5882 5886 5894 5895 5896 5896 5896 5898 5897 5895 5895 5892 5889 5888
5844 5849 5854 5855 5857 5859 5860 5859 5863 5863 5865 5871 5874 5874 5875 5874 5878 5877 5877 5881 5889 5891 5893 5894 5894 5895 5896 5895 5893 5891 5890 5889
5835 5838 5842 5847 5851 5854 5854 5855 5854 5860 5859 5866 5867 5866 5869 5871 5873 5873 5874 5868 5879 5888 5890 5891 5891 5891 5892 5893 5891 5891 5889 5888
5828 5832 5833 5836 5843 5845 5847 5849 5849 5851 5852 5854 5861 5864 5863 5860 5865 5869 5868 5873 5876 5883 5887 5886 5886 5887 5889 5889 5890 5888 5887 5886
5821 5824 5825 5824 5830 5835 5839 5842 5839 5841 5845 5846 5849 5855 5858 5858 5859 5862 5860 5852 5872 5878 5884 5883 5882 5882 5884 5884 5885 5885 5884 5883
5809 5813 5811 5818 5821 5827 5827 5826 5830 5833 5838 5838 5840 5842 5850 5852 5854 5856 5857 5860 5865 5872 5875 5878 5877 5877 5877 5879 5879 5880 5880 5879
5797 5799 5802 5807 5814 5813 5813 5820 5822 5825 5830 5831 5834 5837 5837 5842 5847 5850 5856 5857 5859 5865 5868 5871 5872 5872 5872 5873 5874 5874 5874 5874
5787 5789 5789 5796 5804 5802 5800 5802 5809 5816 5821 5825 5827 5825 5832 5833 5840 5842 5844 5851 5855 5859 5862 5863 5863 5865 5866 5867 5868 5869 5868 5867
5780 5779 5780 5786 5789 5788 5784 5791 5799 5805 5813 5818 5816 5819 5823 5824 5830 5835 5838 5844 5848 5850 5854 5856 5857 5859 5860 5861 5862 5862 5861 5860
5773 5772 5773 5776 5772 5772 5776 5782 5789 5795 5802 5802 5806 5812 5815 5819 5823 5827 5832 5837 5839 5843 5846 5848 5850 5851 5853 5855 5855 5856 5855 5854
5766 5765 5760 5761 5765 5767 5768 5772 5776 5781 5786 5788 5796 5801 5802 5802 5813 5817 5818 5827 5831 5835 5837 5839 5841 5843 5845 5847 5848 5846 5846 5847
5756 5758 5753 5753 5751 5754 5755 5758 5764 5765 5768 5773 5779 5786 5792 5796 5796 5808 5816 5821 5823 5827 5829 5831 5832 5834 5836 5837 5837 5837 5837 5838
5751 5753 5751 5745 5743 5746 5746 5748 5748 5751 5753 5757 5764 5770 5778 5783 5785 5793 5809 5813 5817 5820 5823 5823 5824 5825 5827 5827 5828 5828 5828 5828
5746 5746 5742 5741 5738 5739 5740 5739 5735 5738 5740 5739 5745 5754 5763 5765 5749 5761 5802 5807 5811 5813 5815 5817 5817 5818 5818 5819 5820 5819 5819 5818
5739 5737 5735 5735 5734 5736 5730 5728 5723 5722 5726 5728 5739 5742 5749 5750 5732 5749 5782 5796 5800 5803 5806 5809 5809 5809 5809 5809 5809 5810 5810 5809